�������l�o���
Date,Time,MP-1(��Sv/h),MP-2(��Sv/h),MP-3(��Sv/h),MP-4(��Sv/h),MP-5(��Sv/h),MP-6(��Sv/h),MP-7(��Sv/h),MP-8(��Sv/h),����,����(m/s),���J
2016/09/25,00:00,1.091,1.806,1.315,1.993,1.355,0.590,1.034,0.963,��,2.3,��
2016/09/25,00:10,1.092,1.807,1.315,1.994,1.357,0.589,1.035,0.963,��,1.8,��
2016/09/25,00:20,1.091,1.812,1.318,1.996,1.358,0.588,1.035,0.966,�k��,0.8,��
2016/09/25,00:30,1.090,1.810,1.314,1.998,1.358,0.588,1.038,0.963,��쓌,0.7,��
2016/09/25,00:40,1.095,1.811,1.314,1.997,1.359,0.589,1.037,0.964,���쓌,1.2,��
2016/09/25,00:50,1.094,1.812,1.315,1.995,1.361,0.589,1.036,0.963,���k��,1.2,��
2016/09/25,01:00,1.093,1.810,1.318,1.997,1.360,0.591,1.036,0.963,��,1.4,��
2016/09/25,01:10,1.092,1.813,1.321,1.994,1.361,0.589,1.037,0.964,���k��,2.1,��
2016/09/25,01:20,1.094,1.813,1.318,1.998,1.362,0.590,1.038,0.964,��,1.6,��
2016/09/25,01:30,1.095,1.812,1.319,1.996,1.363,0.589,1.037,0.963,���k��,0.8,��
2016/09/25,01:40,1.094,1.812,1.315,1.995,1.361,0.590,1.037,0.966,��,1.1,��
2016/09/25,01:50,1.095,1.809,1.315,1.996,1.363,0.590,1.036,0.966,���쓌,1.0,��
2016/09/25,02:00,1.093,1.815,1.316,1.998,1.363,0.591,1.038,0.965,��,0.9,��
2016/09/25,02:10,1.096,1.813,1.316,1.995,1.366,0.590,1.039,0.964,��,0.6,��
2016/09/25,02:20,1.093,1.813,1.318,1.998,1.361,0.591,1.037,0.964,�쓌,0.6,��
2016/09/25,02:30,1.095,1.814,1.317,1.998,1.362,0.590,1.040,0.964,-,CALM,��
2016/09/25,02:40,1.095,1.817,1.317,1.998,1.365,0.590,1.040,0.967,�k��,0.8,��
2016/09/25,02:50,1.096,1.814,1.317,1.999,1.367,0.588,1.039,0.964,�k��,0.7,��
2016/09/25,03:00,1.094,1.814,1.317,1.998,1.363,0.589,1.039,0.965,�k��,1.3,��
2016/09/25,03:10,1.096,1.814,1.319,2.000,1.364,0.588,1.039,0.967,��,1.1,��
2016/09/25,03:20,1.093,1.815,1.318,2.001,1.368,0.592,1.038,0.965,���쐼,1.4,��
2016/09/25,03:30,1.094,1.815,1.316,2.003,1.365,0.589,1.040,0.965,��,1.1,��
2016/09/25,03:40,1.094,1.812,1.320,2.000,1.363,0.590,1.038,0.966,��,1.1,��
2016/09/25,03:50,1.094,1.815,1.321,1.999,1.363,0.589,1.038,0.968,�쐼,0.5,��
2016/09/25,04:00,1.094,1.817,1.318,1.998,1.364,0.590,1.038,0.967,-,CALM,��
2016/09/25,04:10,1.094,1.817,1.319,2.002,1.364,0.591,1.037,0.968,-,CALM,��
2016/09/25,04:20,1.094,1.820,1.319,2.003,1.365,0.591,1.037,0.963,�쐼,0.7,��
2016/09/25,04:30,1.092,1.814,1.319,2.001,1.365,0.590,1.038,0.965,-,CALM,��
2016/09/25,04:40,1.097,1.817,1.318,2.000,1.364,0.590,1.038,0.966,�k�k��,1.2,��
2016/09/25,04:50,1.096,1.818,1.317,1.999,1.366,0.590,1.038,0.966,�k�k��,2.3,��
2016/09/25,05:00,1.095,1.816,1.320,2.004,1.365,0.591,1.037,0.964,�k,2.7,��
2016/09/25,05:10,1.095,1.819,1.321,2.001,1.366,0.590,1.039,0.966,�k,2.3,��
2016/09/25,05:20,1.095,1.815,1.317,2.000,1.369,0.590,1.038,0.965,�k,2.6,��
2016/09/25,05:30,1.097,1.816,1.317,2.000,1.369,0.590,1.040,0.964,�k,3.1,��
2016/09/25,05:40,1.094,1.815,1.319,2.001,1.364,0.589,1.039,0.965,�k�k��,3.5,��
2016/09/25,05:50,1.094,1.816,1.320,2.000,1.367,0.589,1.039,0.968,�k�k��,4.4,��
2016/09/25,06:00,1.095,1.815,1.320,1.999,1.368,0.589,1.041,0.967,�k�k��,4.2,��
2016/09/25,06:10,1.095,1.816,1.321,2.001,1.367,0.589,1.039,0.966,�k,3.9,��
2016/09/25,06:20,1.094,1.821,1.321,2.003,1.366,0.590,1.038,0.964,�k,4.7,��
2016/09/25,06:30,1.095,1.819,1.321,2.000,1.372,0.589,1.042,0.964,�k,5.0,��
2016/09/25,06:40,1.095,1.819,1.319,2.004,1.370,0.591,1.039,0.967,�k,3.6,��
2016/09/25,06:50,1.096,1.818,1.320,2.004,1.370,0.589,1.039,0.966,�k,3.1,��
2016/09/25,07:00,1.095,1.816,1.322,2.001,1.367,0.590,1.041,0.967,�k�k��,4.9,��
2016/09/25,07:10,1.094,1.817,1.320,2.002,1.368,0.589,1.041,0.967,�k,2.9,��
2016/09/25,07:20,1.096,1.820,1.323,2.004,1.369,0.589,1.041,0.966,�k,2.3,��
2016/09/25,07:30,1.097,1.824,1.323,2.003,1.369,0.590,1.041,0.967,�k,2.1,��
2016/09/25,07:40,1.097,1.821,1.323,2.004,1.371,0.588,1.041,0.967,�k,2.1,��
2016/09/25,07:50,1.096,1.822,1.326,2.004,1.372,0.588,1.042,0.969,�k,1.9,��
2016/09/25,08:00,1.095,1.823,1.325,2.005,1.371,0.588,1.041,0.967,�k,1.2,��
2016/09/25,08:10,1.095,1.824,1.324,2.006,1.373,0.587,1.040,0.968,�k��,1.3,��
2016/09/25,08:20,1.095,1.826,1.323,2.005,1.373,0.587,1.039,0.968,�k��,1.2,��
2016/09/25,08:30,1.094,1.827,1.322,2.008,1.374,0.587,1.041,0.967,�k��,0.9,��
2016/09/25,08:40,1.096,1.828,1.322,2.007,1.374,0.588,1.042,0.966,�k�k��,0.9,��
2016/09/25,08:50,1.098,1.823,1.324,2.007,1.375,0.588,1.044,0.965,�k�k��,1.2,��
2016/09/25,09:00,1.099,1.825,1.322,2.011,1.375,0.590,1.043,0.967,-,CALM,��
2016/09/25,09:10,1.101,1.826,1.322,2.013,1.376,0.589,1.042,0.965,��,1.5,��
2016/09/25,09:20,1.099,1.828,1.325,2.011,1.375,0.590,1.044,0.964,��,2.3,��
2016/09/25,09:30,1.100,1.828,1.324,2.009,1.375,0.590,1.042,0.966,��,2.0,��
2016/09/25,09:40,1.101,1.827,1.327,2.011,1.380,0.592,1.042,0.965,���쓌,1.8,��
2016/09/25,09:50,1.100,1.828,1.329,2.010,1.379,0.590,1.045,0.966,���쓌,2.4,��
2016/09/25,10:00,1.103,1.831,1.329,2.012,1.380,0.590,1.044,0.967,���쓌,2.2,��
2016/09/25,10:10,1.103,1.834,1.328,2.013,1.381,0.589,1.044,0.967,��,1.9,��
2016/09/25,10:20,1.102,1.829,1.329,2.011,1.382,0.590,1.045,0.967,��,1.8,��
2016/09/25,10:30,1.105,1.835,1.330,2.014,1.382,0.591,1.045,0.969,�k��,2.1,��
2016/09/25,10:40,1.106,1.833,1.334,2.013,1.383,0.591,1.045,0.968,���쓌,1.6,��
2016/09/25,10:50,1.106,1.832,1.330,2.014,1.384,0.589,1.046,0.969,���쓌,2.0,��
2016/09/25,11:00,1.108,1.836,1.332,2.016,1.386,0.592,1.046,0.967,���쓌,2.4,��
2016/09/25,11:10,1.106,1.839,1.333,2.016,1.387,0.591,1.045,0.966,���쓌,2.0,��
2016/09/25,11:20,1.106,1.837,1.334,2.018,1.387,0.592,1.046,0.969,���쓌,2.8,��
2016/09/25,11:30,1.106,1.836,1.335,2.018,1.385,0.593,1.046,0.968,��,2.1,��
2016/09/25,11:40,1.110,1.840,1.334,2.020,1.388,0.591,1.048,0.968,���쓌,2.3,��
2016/09/25,11:50,1.108,1.837,1.336,2.019,1.389,0.594,1.047,0.969,���쓌,2.4,��
2016/09/25,12:00,1.108,1.839,1.334,2.016,1.389,0.591,1.049,0.968,���쓌,2.3,��
2016/09/25,12:10,1.108,1.844,1.336,2.014,1.390,0.594,1.049,0.968,��,2.6,��
2016/09/25,12:20,1.108,1.840,1.336,2.015,1.392,0.593,1.050,0.969,��,2.2,��
2016/09/25,12:30,1.109,1.844,1.338,2.016,1.388,0.593,1.049,0.968,��,1.9,��
2016/09/25,12:40,1.110,1.844,1.338,2.015,1.390,0.593,1.049,0.969,���쓌,2.0,��
2016/09/25,12:50,1.109,1.842,1.338,2.018,1.393,0.593,1.050,0.969,���쓌,1.9,��
2016/09/25,13:00,1.110,1.843,1.339,2.020,1.390,0.595,1.048,0.970,�쓌,2.2,��
2016/09/25,13:10,1.110,1.841,1.340,2.023,1.391,0.593,1.048,0.969,�쓌,2.3,��
2016/09/25,13:20,1.110,1.844,1.340,2.020,1.394,0.593,1.051,0.969,���쓌,2.1,��
2016/09/25,13:30,1.112,1.844,1.341,2.020,1.394,0.594,1.049,0.971,�쓌,2.2,��
2016/09/25,13:40,1.109,1.844,1.340,2.019,1.393,0.595,1.050,0.970,�쓌,2.4,��
2016/09/25,13:50,1.111,1.847,1.342,2.019,1.393,0.595,1.049,0.970,�쓌,1.7,��
2016/09/25,14:00,1.110,1.844,1.342,2.024,1.394,0.593,1.051,0.967,�쓌,2.3,��
2016/09/25,14:10,1.111,1.848,1.343,2.026,1.395,0.594,1.048,0.971,�쓌,2.8,��
2016/09/25,14:20,1.112,1.845,1.341,2.024,1.395,0.593,1.050,0.970,��쓌,2.6,��
2016/09/25,14:30,1.111,1.847,1.340,2.025,1.396,0.596,1.052,0.970,�쓌,3.0,��
2016/09/25,14:40,1.110,1.848,1.339,2.024,1.394,0.594,1.049,0.970,��쓌,3.6,��
2016/09/25,14:50,1.112,1.849,1.340,2.025,1.393,0.594,1.052,0.970,�쓌,2.6,��
2016/09/25,15:00,1.114,1.847,1.341,2.027,1.396,0.595,1.051,0.970,�쓌,3.3,��
2016/09/25,15:10,1.113,1.852,1.343,2.022,1.397,0.597,1.050,0.972,��쓌,2.7,��
2016/09/25,15:20,1.111,1.849,1.343,2.024,1.398,0.596,1.051,0.969,��쓌,3.9,��
2016/09/25,15:30,1.111,1.849,1.342,2.024,1.396,0.595,1.050,0.970,��쓌,2.9,��
2016/09/25,15:40,1.113,1.852,1.343,2.025,1.395,0.593,1.051,0.971,�쓌,3.2,��
2016/09/25,15:50,1.113,1.851,1.341,2.027,1.400,0.595,1.050,0.969,�쓌,2.8,��
2016/09/25,16:00,1.113,1.852,1.342,2.023,1.395,0.596,1.049,0.970,��쓌,3.3,��
2016/09/25,16:10,1.115,1.854,1.343,2.026,1.396,0.597,1.050,0.969,��쓌,4.5,��
2016/09/25,16:20,1.111,1.852,1.345,2.026,1.397,0.596,1.051,0.972,��쓌,3.5,��
2016/09/25,16:30,1.112,1.853,1.346,2.025,1.400,0.598,1.048,0.972,�쓌,3.8,��
2016/09/25,16:40,1.112,1.852,1.345,2.028,1.397,0.597,1.050,0.970,��쓌,3.6,��
2016/09/25,16:50,1.110,1.850,1.346,2.027,1.398,0.599,1.049,0.971,��쓌,3.1,��
2016/09/25,17:00,1.111,1.851,1.343,2.025,1.398,0.598,1.050,0.972,��쓌,2.8,��
2016/09/25,17:10,1.111,1.851,1.346,2.027,1.398,0.598,1.050,0.972,��쓌,3.1,��
2016/09/25,17:20,1.113,1.852,1.344,2.029,1.399,0.596,1.052,0.975,��쓌,3.0,��
2016/09/25,17:30,1.117,1.855,1.347,2.027,1.400,0.598,1.051,0.974,��,3.3,��
2016/09/25,17:40,1.114,1.854,1.346,2.027,1.401,0.596,1.052,0.975,��,3.2,��
2016/09/25,17:50,1.115,1.852,1.344,2.026,1.401,0.596,1.052,0.974,��,3.1,��
2016/09/25,18:00,1.114,1.850,1.346,2.026,1.399,0.595,1.052,0.974,��쐼,1.7,��
2016/09/25,18:10,1.117,1.853,1.346,2.030,1.401,0.598,1.051,0.974,��,1.7,��
2016/09/25,18:20,1.114,1.855,1.344,2.027,1.401,0.599,1.052,0.973,��쐼,0.9,��
2016/09/25,18:30,1.114,1.855,1.345,2.026,1.402,0.597,1.051,0.974,�쐼,1.6,��
2016/09/25,18:40,1.114,1.855,1.347,2.026,1.401,0.599,1.051,0.973,��,1.6,��
2016/09/25,18:50,1.116,1.854,1.347,2.030,1.400,0.597,1.051,0.974,��쐼,2.0,��
2016/09/25,19:00,1.118,1.853,1.347,2.026,1.400,0.597,1.050,0.972,��쐼,1.9,��
2016/09/25,19:10,1.114,1.855,1.344,2.031,1.402,0.597,1.053,0.973,��,1.7,��
2016/09/25,19:20,1.116,1.853,1.345,2.029,1.402,0.597,1.053,0.975,��,1.1,��
2016/09/25,19:30,1.118,1.853,1.346,2.028,1.402,0.597,1.053,0.974,��,1.8,��
2016/09/25,19:40,1.113,1.852,1.345,2.027,1.402,0.597,1.055,0.975,��,1.8,��
2016/09/25,19:50,1.118,1.851,1.345,2.028,1.400,0.597,1.051,0.975,��,1.2,��
2016/09/25,20:00,1.118,1.851,1.344,2.031,1.402,0.599,1.051,0.976,��쐼,2.1,��
2016/09/25,20:10,1.116,1.853,1.347,2.029,1.403,0.596,1.052,0.973,��쐼,2.0,��
2016/09/25,20:20,1.115,1.850,1.347,2.030,1.402,0.597,1.052,0.974,��쐼,1.8,��
2016/09/25,20:30,1.117,1.854,1.345,2.026,1.402,0.598,1.052,0.973,��쓌,1.8,��
2016/09/25,20:40,1.118,1.854,1.344,2.029,1.401,0.597,1.051,0.974,��쓌,2.9,��
2016/09/25,20:50,1.117,1.852,1.347,2.026,1.402,0.598,1.053,0.973,��쓌,4.1,��
2016/09/25,21:00,1.116,1.855,1.345,2.031,1.402,0.596,1.051,0.975,��,3.5,��
2016/09/25,21:10,1.115,1.850,1.346,2.028,1.404,0.597,1.053,0.972,��,3.0,��
2016/09/25,21:20,1.117,1.852,1.347,2.027,1.403,0.597,1.055,0.975,��쐼,2.0,��
2016/09/25,21:30,1.116,1.853,1.347,2.028,1.405,0.597,1.052,0.974,��쐼,1.5,��
2016/09/25,21:40,1.118,1.853,1.346,2.027,1.406,0.597,1.054,0.975,��쐼,1.1,��
2016/09/25,21:50,1.117,1.854,1.346,2.028,1.404,0.598,1.053,0.975,��쐼,1.0,��
2016/09/25,22:00,1.117,1.853,1.347,2.027,1.405,0.597,1.054,0.975,��쐼,1.0,��
2016/09/25,22:10,1.118,1.853,1.344,2.030,1.403,0.598,1.052,0.974,�쐼,0.7,��
2016/09/25,22:20,1.118,1.850,1.343,2.032,1.404,0.598,1.053,0.975,���쐼,1.1,��
2016/09/25,22:30,1.117,1.854,1.345,2.030,1.404,0.598,1.053,0.974,���k��,1.2,��
2016/09/25,22:40,1.119,1.853,1.346,2.030,1.402,0.598,1.055,0.975,�k��,1.0,��
2016/09/25,22:50,1.118,1.856,1.346,2.031,1.405,0.598,1.052,0.976,�k�k��,1.8,��
2016/09/25,23:00,1.118,1.854,1.344,2.031,1.404,0.598,1.055,0.974,�k�k��,0.5,��
2016/09/25,23:10,1.119,1.854,1.344,2.029,1.403,0.596,1.053,0.974,�k�k��,0.6,��
2016/09/25,23:20,1.116,1.851,1.348,2.028,1.406,0.597,1.053,0.974,�k,0.8,��
2016/09/25,23:30,1.116,1.855,1.347,2.031,1.404,0.597,1.053,0.975,�k,0.6,��
2016/09/25,23:40,1.119,1.853,1.348,2.029,1.406,0.599,1.053,0.973,�k,0.8,��
2016/09/25,23:50,1.117,1.855,1.347,2.029,1.406,0.598,1.053,0.974,�k��,1.3,��
